sat.trackr.live / text

‹ back to catalog

STARLINK-5649

NORAD 55354 · 2023-013Z

PAYLOAD ACTIVE UNKNOWN

§ Identity

Operator
Country
US
Launch date
2023-01-26
Launch site
AFETR
Launch vehicle
Mass (kg)
RCS (m²)

Purposes: comms

External: N2YO · Heavens-Above · Gunter

§ Orbital elements

Epoch: 2026-05-24T14:02:58.809696Z

Period
94.28 min
Inclination
43.0023°
Eccentricity
0.0001664
Mean motion
15.27399750 rev/d
Perigee alt
482.4 km
Apogee alt
484.7 km
Semi-major
6,861.7 km
B*
1.2801e-3
RAAN
234.5340°
Arg perigee
269.2048°
Mean anomaly
90.8613°
Rev number
18,328

§ Raw data

STARLINK-56491 55354U 23013Z   26144.58540289  .00034937  00000+0  12801-2 0  99982 55354  43.0023 234.5340 0001664 269.2048  90.8613 15.27399750183282

JSON: /api/v1/satellites/55354 · /tle

For live sub-satellite position, see the globe view (requires WebGL).

§ Visibility from observer

Set your observer location to see the next 7 days of passes ≥ 10°. The values pass through the URL so the page stays shareable.

No JS? Fill the form by hand. The geolocation button needs JavaScript.